Location: Newark
(52.0178°N, 4.7453°W)
Time: 16:34:17
(UTC+00:00)

Envisat - Visible Passes

Search period start: 14 October 2019 00:00
Search period end: 24 October 2019 00:00
Orbit: 764 x 766 km, 98.1° (Epoch: 14 October)

Date Brightness Start Highest point End Pass type
(mag) Time Alt. Az. Time Alt. Az. Time Alt. Az.
14 Oct 3.0 17:56:05 10° SSE 18:01:08 70° ENE 18:06:13 10° N visible
14 Oct 5.7 19:36:59 10° SW 19:40:41 20° W 19:44:25 10° NW visible
15 Oct 6.2 06:00:23 10° NE 06:03:34 16° E 06:06:45 10° SE visible
15 Oct 4.5 18:58:50 10° SSW 19:03:33 38° W 19:08:19 10° NNW visible
16 Oct 3.3 18:21:33 10° S 18:26:38 75° WSW 18:31:45 10° NNW visible
16 Oct 6.1 20:04:29 10° WSW 20:06:35 12° W 20:08:41 10° WNW visible
17 Oct 5.4 19:25:12 10° SW 19:29:18 24° W 19:33:26 10° NW visible
18 Oct 6.3 05:49:41 10° NE 05:52:08 13° E 05:54:35 10° ESE visible
18 Oct 4.1 18:47:21 10° S 18:52:14 46° W 18:57:09 10° NNW visible
19 Oct 3.0 18:10:16 10° SSE 18:15:22 90° W 18:20:30 10° NNW visible
19 Oct 6.0 19:52:11 10° WSW 19:55:08 15° W 19:58:06 10° NW visible
20 Oct 6.0 06:14:07 10° NE 06:18:00 22° E 06:21:52 10° SE visible
20 Oct 5.0 19:13:31 10° SSW 19:17:56 29° W 19:22:22 10° NNW visible
21 Oct 6.7 05:39:31 10° ENE 05:40:41 11° E 05:41:52 10° E visible
21 Oct 3.7 18:35:56 10° S 18:40:55 57° W 18:45:57 10° NNW visible
22 Oct 3.0 17:59:02 10° SSE 18:04:06 76° ENE 18:09:12 10° NNW visible
22 Oct 5.7 19:40:11 10° SW 19:43:43 19° W 19:47:16 10° NW visible
23 Oct 6.1 06:03:11 10° NE 06:06:36 18° E 06:10:00 10° SE visible
23 Oct 4.7 19:01:55 10° SSW 19:06:34 35° W 19:11:15 10° NNW visible
